Terminal Aerodrome Forecast
Issued by NWS Twin Cities, MN

Home | Current Version | Previous Version | Graphics & Text | Print | Product List | Glossary On
Versions: 1 2 3 4 5 6 7 8 9 10 11 12 13 14 15 16 17 18 19 20 21 22 23 24 25 26
000
FTUS43 KMPX 072000 AAA
TAFMSP
TAF AMD
KMSP 072054Z 0721/0824 30012KT P6SM VCSH SCT040 BKN080
     FM072200 30010KT 6SM -SHRA VCTS OVC035CB
      TEMPO 0722/0802 3SM -TSRA OVC025CB
     FM080300 30009KT P6SM SCT030 OVC040
     FM080600 30008KT P6SM SCT050 BKN250
     FM081500 31012KT P6SM SCT250
     FM081700 32014G22KT P6SM SCT050=

USA.gov is the U.S. government's official web portal to all federal, state and local government web resources and services.